When you browse on this site, cookies collect data to enhance your experience and personalize the content and advertising you see.
Visit our Privacy Policy to learn more. By continuing to use the site, you agree to this use of cookies and data.
  • In Czech Republic
  • List of Countries
  • For 7 days
  • Water Temperature
  • Satellite Maps
  • Weather Map
  • Weather Widgets
  • user-avatar
    Login

    Hourly Weather Moung

    Today, 16 June, Sunday

    Time Temperature Precipitation Wind Pressure Humidity
    00:00 +29°C° 0 mm 2 mps 755 mmHg 81%
    01:00 +29°C° 0 mm 3 mps 755 mmHg 81%
    02:00 +29°C° 0 mm 2 mps 754 mmHg 82%
    03:00 +29°C° 0 mm 2 mps 754 mmHg 83%
    04:00 +29°C° 0 mm 2 mps 753 mmHg 84%
    05:00 +29°C° 0 mm 2 mps 754 mmHg 84%
    06:00 +29°C° 0 mm 2 mps 754 mmHg 83%
    07:00 +30°C° 0 mm 2 mps 755 mmHg 83%
    08:00 +30°C° 0 mm 2 mps 755 mmHg 80%
    09:00 +31°C° 0 mm 3 mps 755 mmHg 77%
    10:00 +33°C° 0 mm 3 mps 755 mmHg 73%
    11:00 +34°C° 0 mm 3 mps 754 mmHg 69%
    12:00 +35°C° 0 mm 3 mps 754 mmHg 64%
    13:00 +36°C° 0 mm 3 mps 754 mmHg 61%
    14:00 +36°C° 0.3 mm 3 mps 753 mmHg 61%
    15:00 +36°C° 0.3 mm 3 mps 753 mmHg 61%
    16:00 +36°C° 0.3 mm 3 mps 752 mmHg 61%
    17:00 +35°C° 0.8 mm 3 mps 753 mmHg 66%
    18:00 +33°C° 0.8 mm 3 mps 753 mmHg 71%
    19:00 +31°C° 0.8 mm 3 mps 754 mmHg 76%
    20:00 +30°C° 0 mm 3 mps 754 mmHg 78%
    21:00 +30°C° 0 mm 3 mps 754 mmHg 80%
    22:00 +30°C° 0 mm 3 mps 755 mmHg 81%
    23:00 +29°C° 0 mm 3 mps 755 mmHg 83%

    Tomorrow, 17 June, Monday

    Time Temperature Precipitation Wind Pressure Humidity
    00:00 +29°C° 0 mm 3 mps 755 mmHg 85%
    01:00 +29°C° 0 mm 3 mps 755 mmHg 86%
    02:00 +29°C° 0 mm 3 mps 754 mmHg 86%
    03:00 +29°C° 0 mm 3 mps 754 mmHg 86%
    04:00 +29°C° 0 mm 3 mps 754 mmHg 86%
    05:00 +29°C° 0 mm 3 mps 754 mmHg 84%
    06:00 +29°C° 0 mm 3 mps 755 mmHg 82%
    07:00 +29°C° 0 mm 3 mps 755 mmHg 80%
    08:00 +29°C° 0 mm 3 mps 755 mmHg 80%
    09:00 +29°C° 0 mm 4 mps 756 mmHg 79%
    10:00 +29°C° 0 mm 4 mps 756 mmHg 78%
    11:00 +29°C° 0 mm 4 mps 756 mmHg 79%
    12:00 +29°C° 0 mm 4 mps 755 mmHg 79%
    13:00 +28°C° 0 mm 5 mps 755 mmHg 80%
    14:00 +29°C° 0 mm 4 mps 755 mmHg 79%
    15:00 +29°C° 0 mm 3 mps 754 mmHg 78%
    16:00 +29°C° 0 mm 3 mps 753 mmHg 76%
    17:00 +29°C° 0 mm 3 mps 754 mmHg 78%
    18:00 +28°C° 0 mm 3 mps 754 mmHg 80%
    19:00 +28°C° 0 mm 3 mps 755 mmHg 81%
    20:00 +28°C° 0.5 mm 3 mps 755 mmHg 84%
    21:00 +28°C° 0.5 mm 3 mps 756 mmHg 86%
    22:00 +27°C° 0.5 mm 3 mps 756 mmHg 89%
    23:00 +27°C° 0.1 mm 3 mps 756 mmHg 88%

    Day after tomorrow, 18 June, Tuesday

    Time Temperature Precipitation Wind Pressure Humidity
    00:00 +27°C° 0.1 mm 3 mps 756 mmHg 88%
    01:00 +27°C° 0.1 mm 3 mps 756 mmHg 88%
    02:00 +27°C° 0 mm 3 mps 755 mmHg 87%
    03:00 +27°C° 0 mm 3 mps 755 mmHg 87%
    04:00 +27°C° 0 mm 2 mps 754 mmHg 86%
    05:00 +27°C° 0 mm 2 mps 755 mmHg 86%
    06:00 +27°C° 0 mm 2 mps 755 mmHg 86%
    07:00 +27°C° 0 mm 1 mps 755 mmHg 86%
    08:00 +28°C° 0 mm 2 mps 756 mmHg 83%
    09:00 +29°C° 0 mm 3 mps 756 mmHg 79%
    10:00 +30°C° 0 mm 4 mps 756 mmHg 75%
    11:00 +30°C° 0 mm 3 mps 756 mmHg 75%
    12:00 +30°C° 0 mm 3 mps 755 mmHg 75%
    13:00 +30°C° 0 mm 3 mps 755 mmHg 74%
    14:00 +29°C° 0.1 mm 3 mps 755 mmHg 77%
    15:00 +29°C° 0.1 mm 3 mps 754 mmHg 79%
    16:00 +29°C° 0.1 mm 3 mps 754 mmHg 81%
    17:00 +28°C° 0 mm 3 mps 754 mmHg 81%
    18:00 +28°C° 0 mm 2 mps 755 mmHg 81%
    19:00 +28°C° 0 mm 2 mps 755 mmHg 81%
    20:00 +27°C° 0 mm 1 mps 755 mmHg 82%
    21:00 +27°C° 0 mm 1 mps 755 mmHg 83%
    22:00 +27°C° 0 mm 1 mps 756 mmHg 84%
    23:00 +27°C° 0 mm 2 mps 755 mmHg 84%

    19 June, Wednesday

    Time Temperature Precipitation Wind Pressure Humidity
    00:00 +27°C° 0 mm 2 mps 755 mmHg 85%
    01:00 +27°C° 0 mm 2 mps 755 mmHg 85%
    02:00 +27°C° 0.1 mm 2 mps 755 mmHg 86%
    03:00 +27°C° 0.1 mm 2 mps 754 mmHg 86%
    04:00 +27°C° 0.1 mm 2 mps 754 mmHg 87%
    05:00 +27°C° 0.1 mm 2 mps 755 mmHg 86%
    06:00 +27°C° 0.1 mm 2 mps 755 mmHg 86%
    07:00 +28°C° 0.1 mm 1 mps 755 mmHg 86%
    08:00 +28°C° 0.8 mm 2 mps 756 mmHg 85%
    09:00 +28°C° 0.8 mm 3 mps 756 mmHg 84%
    10:00 +28°C° 0.8 mm 3 mps 756 mmHg 83%
    11:00 +28°C° 0.8 mm 3 mps 755 mmHg 83%
    12:00 +28°C° 0.8 mm 3 mps 755 mmHg 84%
    13:00 +28°C° 0.8 mm 3 mps 754 mmHg 84%
    14:00 +28°C° 0.5 mm 4 mps 754 mmHg 83%
    15:00 +29°C° 0.5 mm 4 mps 754 mmHg 82%
    16:00 +29°C° 0.5 mm 5 mps 753 mmHg 81%
    17:00 +28°C° 0.2 mm 4 mps 753 mmHg 84%
    18:00 +28°C° 0.2 mm 4 mps 754 mmHg 87%
    19:00 +27°C° 0.2 mm 3 mps 754 mmHg 90%
    20:00 +27°C° 0 mm 3 mps 755 mmHg 90%
    21:00 +27°C° 0 mm 3 mps 755 mmHg 90%
    22:00 +27°C° 0 mm 3 mps 756 mmHg 90%
    23:00 +27°C° 0.1 mm 3 mps 755 mmHg 90%

    20 June, Thursday

    Time Temperature Precipitation Wind Pressure Humidity
    00:00 +26°C° 0.1 mm 3 mps 755 mmHg 90%
    01:00 +26°C° 0.1 mm 3 mps 755 mmHg 90%
    02:00 +26°C° 0.3 mm 3 mps 754 mmHg 90%
    03:00 +26°C° 0.3 mm 3 mps 754 mmHg 91%
    04:00 +26°C° 0.3 mm 2 mps 754 mmHg 92%
    05:00 +26°C° 0.5 mm 3 mps 754 mmHg 90%
    06:00 +26°C° 0.5 mm 3 mps 755 mmHg 89%
    07:00 +27°C° 0.5 mm 4 mps 755 mmHg 87%
    08:00 +28°C° 0.1 mm 4 mps 755 mmHg 82%
    09:00 +29°C° 0.1 mm 5 mps 756 mmHg 76%
    10:00 +30°C° 0.1 mm 5 mps 756 mmHg 71%
    11:00 +32°C° 0 mm 5 mps 755 mmHg 68%
    12:00 +33°C° 0 mm 6 mps 755 mmHg 65%
    13:00 +34°C° 0 mm 6 mps 754 mmHg 62%
    14:00 +34°C° 0 mm 6 mps 753 mmHg 62%
    15:00 +34°C° 0 mm 6 mps 753 mmHg 62%
    16:00 +34°C° 0 mm 6 mps 753 mmHg 61%
    17:00 +33°C° 0 mm 5 mps 753 mmHg 65%
    18:00 +30°C° 0 mm 5 mps 753 mmHg 70%
    19:00 +29°C° 0 mm 4 mps 754 mmHg 74%
    20:00 +29°C° 0 mm 4 mps 754 mmHg 76%
    21:00 +28°C° 0 mm 4 mps 755 mmHg 78%
    22:00 +28°C° 0 mm 3 mps 755 mmHg 80%
    23:00 +28°C° 0 mm 3 mps 755 mmHg 81%

    21 June, Friday

    Time Temperature Precipitation Wind Pressure Humidity
    00:00 +28°C° 0 mm 3 mps 754 mmHg 82%
    01:00 +28°C° 0 mm 3 mps 754 mmHg 83%
    02:00 +28°C° 0 mm 2 mps 754 mmHg 83%
    03:00 +28°C° 0 mm 2 mps 754 mmHg 83%
    04:00 +28°C° 0 mm 2 mps 754 mmHg 83%
    05:00 +28°C° 0 mm 2 mps 754 mmHg 84%
    06:00 +28°C° 0 mm 2 mps 754 mmHg 84%
    07:00 +28°C° 0 mm 2 mps 754 mmHg 84%
    08:00 +30°C° 0 mm 2 mps 755 mmHg 77%
    09:00 +31°C° 0 mm 3 mps 755 mmHg 70%
    10:00 +34°C° 0 mm 4 mps 755 mmHg 63%
    11:00 +34°C° 0.7 mm 5 mps 754 mmHg 62%
    12:00 +35°C° 0.7 mm 5 mps 754 mmHg 60%
    13:00 +35°C° 0.7 mm 6 mps 753 mmHg 59%
    14:00 +34°C° 1.5 mm 6 mps 753 mmHg 62%
    15:00 +34°C° 1.5 mm 6 mps 752 mmHg 65%
    16:00 +33°C° 1.5 mm 7 mps 752 mmHg 68%
    17:00 +32°C° 0.3 mm 6 mps 752 mmHg 72%
    18:00 +30°C° 0.3 mm 5 mps 753 mmHg 75%
    19:00 +28°C° 0.3 mm 5 mps 753 mmHg 79%
    20:00 +28°C° 0.2 mm 4 mps 754 mmHg 80%
    21:00 +28°C° 0.2 mm 4 mps 754 mmHg 80%
    22:00 +28°C° 0.2 mm 4 mps 754 mmHg 81%
    23:00 +28°C° 0.2 mm 4 mps 754 mmHg 82%
    Show more